Flag for Mexico Weather past 2 weeks in Ojinaga, Chihuahua, Mexico

Now
68 °F

Scattered clouds.


Feels Like: 68 °F
Forecast: 71 / 86 °F
Wind: 3 mph from East

Location: Marfa Municipal Airport

Current Time: Sep 21, 2014 at 8:15:47 PM

Latest Report: Sep 21, 2014 at 7:35 PM


Visibility: 10 mi

Pressure: 30.22 "Hg

Humidity: 88%

Dew point: 64 °F

Location of OjinagaLocation

Historic Weather in Ojinaga — Graph

°F

Ojinaga temperature yesterday

Maximum temperature yesterday: 81 °F (at 12:35 PM)
Minimum temperature yesterday: 57 °F (at 6:55 AM)
Average temperature yesterday: 67 °F

Past Weeks' High & Low Weather Summary

 TemperatureHumidityPressure
High88 °F (Sep 10, 2:55 PM)100% (Sep 6, 6:35 PM)30.35 "Hg (Sep 6, 6:35 PM)
Low48 °F (Sep 13, 6:35 AM)27% (Sep 10, 3:15 PM)29.97 "Hg (Sep 18, 3:35 PM)
Average67 °F79%30.18 "Hg
* Reported Sep 6 6:15 PM — Sep 21 6:15 PM, Ojinaga, Weather by CustomWeather, © 2014

Note: Actual official high and low records may vary slightly from our data, if they occured in-between our weather recording intervals... More about our weather records

Advertising

Ojinaga weather history for previous 24 hours

 ConditionsComfort  
Time TempWeatherWind HumidityBarometerVisibility
6:15 PM
Sep 21
72 °FPartly sunny.8 mph78%30.19 "Hg10 mi
5:55 PM73 °FPartly sunny.9 mph74%30.18 "Hg10 mi
5:35 PM73 °FPassing clouds.13 mph69%30.18 "Hg10 mi
5:15 PM73 °FScattered clouds.15 mph69%30.17 "Hg10 mi
4:55 PM73 °FMostly cloudy.16 mph74%30.18 "Hg10 mi
4:35 PM75 °FThundershowers. Broken clouds.15 mph69%30.18 "Hg10 mi
4:15 PM79 °FThunderstorms. Broken clouds.16 mph58%30.17 "Hg10 mi
3:55 PM81 °FPassing clouds.9 mph58%30.18 "Hg10 mi
3:35 PM79 °FSunny.13 mph61%30.18 "Hg10 mi
3:15 PM79 °FSunny.13 mph61%30.18 "Hg10 mi
2:55 PM77 °FSunny.9 mph65%30.18 "Hg10 mi
2:35 PM75 °FPassing clouds.13 mph69%30.18 "Hg10 mi
2:15 PM75 °FScattered clouds.10 mph65%30.19 "Hg10 mi
1:55 PM73 °FPartly sunny.14 mph74%30.20 "Hg10 mi
1:35 PM77 °FPartly sunny.10 mph65%30.21 "Hg10 mi
1:15 PM77 °FPartly sunny.7 mph65%30.21 "Hg10 mi
12:55 PM75 °FPartly sunny.3 mph69%30.22 "Hg10 mi
12:35 PM77 °FScattered clouds.6 mph65%30.22 "Hg10 mi
11:55 AM75 °FPartly sunny.5 mph69%30.25 "Hg10 mi
11:35 AM73 °FPartly sunny.No wind74%30.26 "Hg10 mi
11:15 AM72 °FBroken clouds.No wind78%30.26 "Hg10 mi
10:55 AM72 °FBroken clouds.3 mph78%30.27 "Hg10 mi
10:35 AM72 °FBroken clouds.No wind78%30.27 "Hg10 mi
10:15 AM72 °FScattered clouds.No wind78%30.27 "Hg10 mi
9:55 AM70 °FMostly cloudy.No wind83%30.27 "Hg10 mi
9:35 AM68 °FMostly cloudy.No wind88%30.26 "Hg8 mi
9:15 AM66 °FMore clouds than sun.No wind94%30.26 "Hg7 mi
8:55 AM66 °FMostly cloudy.No wind94%30.26 "Hg7 mi
8:35 AM64 °FOvercast.No wind94%30.25 "Hg7 mi
8:15 AM64 °FMostly cloudy.3 mph94%30.24 "Hg7 mi
7:55 AM63 °FOvercast.No wind100%30.24 "Hg5 mi
7:35 AM61 °FOvercast.No wind94%30.24 "Hg5 mi
6:55 AM57 °FPassing clouds.3 mph94%30.22 "Hg8 mi
6:35 AM57 °FPassing clouds.5 mph100%30.21 "Hg10 mi
5:55 AM57 °FClear.3 mph100%30.21 "Hg7 mi
5:35 AM57 °FClear.No wind94%30.20 "Hg7 mi
5:15 AM59 °FClear.5 mph94%30.20 "Hg7 mi
4:55 AM59 °FClear.5 mph94%30.19 "Hg10 mi
4:35 AM59 °FClear.No wind94%30.19 "Hg10 mi
4:15 AM59 °FClear.No wind94%30.18 "Hg10 mi
3:55 AM61 °FClear.No wind94%30.18 "Hg10 mi
3:35 AM61 °FClear.No wind94%30.18 "Hg10 mi
3:15 AM61 °FClear.6 mph94%30.18 "Hg10 mi
2:55 AM61 °FClear.3 mph94%30.18 "Hg10 mi
2:35 AM61 °FClear.7 mph100%30.18 "Hg10 mi
2:15 AM61 °FClear.5 mph94%30.19 "Hg10 mi
1:55 AM61 °FClear.No wind100%30.18 "Hg10 mi
1:35 AM63 °FClear.No wind94%30.18 "Hg10 mi
1:15 AM61 °FClear.7 mph100%30.19 "Hg10 mi
12:55 AM63 °FClear.No wind94%30.19 "Hg10 mi
12:35 AM63 °FClear.No wind100%30.19 "Hg10 mi
11:55 PM
Sep 20
63 °FClear.6 mph100%30.19 "Hg10 mi
11:35 PM63 °FClear.No wind100%30.19 "Hg10 mi
11:15 PM63 °FClear.3 mph100%30.19 "Hg10 mi
10:55 PM64 °FClear.No wind94%30.18 "Hg10 mi
10:35 PM64 °FClear.6 mph94%30.19 "Hg10 mi
10:15 PM64 °FPassing clouds.5 mph94%30.18 "Hg10 mi
9:55 PM64 °FClear.6 mph100%30.18 "Hg10 mi
9:35 PM66 °FClear.6 mph94%30.18 "Hg10 mi
9:15 PM66 °FClear.6 mph94%30.18 "Hg10 mi
8:55 PM66 °FClear.5 mph94%30.17 "Hg10 mi
8:35 PM66 °FClear.5 mph94%30.16 "Hg10 mi
8:15 PM66 °FClear.6 mph100%30.15 "Hg10 mi
Weather by CustomWeather, © 2014

See weather overviewHow to use our weather pages